Location: Henderson
(36.0400°N, 114.9810°W)
Time: 15:33:52
(UTC-07:00)

Daily predictions for brighter satellites

Satellite Brightness Start Highest point End
(mag) Time Altitude Azimuth Time Altitude Azimuth Time Altitude Azimuth
Atlas Centaur 2 3.2 19:42:07 10° WSW 19:50:22 57° S 19:57:30 10° E
Cosmos 2026 Rocket 4.0 19:47:16 10° S 19:53:30 69° E 19:59:51 10° NNE
ALOS 3.5 19:49:07 10° S 19:53:35 46° W 19:58:05 10° NNW
Cosmos 1812 3.0 19:54:11 10° N 19:58:04 74° W 20:01:54 10° S
CZ-4C R/B 3.6 19:53:18 10° NW 20:00:36 61° WSW 20:08:30 10° SSE
USA 186 2.4 20:00:50 10° SE 20:03:58 39° ENE 20:07:09 10° N
Cosmos 1655 Rocket 4.1 19:58:02 10° S 20:04:12 63° E 20:10:26 10° NNE
GPS 2-05 Rocket1 2.7 20:01:46 10° W 20:05:10 83° S 20:08:18 11° E
Cosmos 1602 4.0 20:04:00 10° SSE 20:07:41 46° E 20:11:22 10° NNE
Okean 2 Rocket 3.3 20:05:24 10° S 20:09:53 80° W 20:14:25 10° N
Cosmos 2297 Rocket 4.3 20:05:48 10° NW 20:10:26 27° WSW 20:15:03 10° SSW
Envisat 3.3 20:09:02 10° SSE 20:13:54 49° ENE 20:18:47 10° N
SJ-6B 4.2 20:10:28 10° S 20:14:17 42° W 20:18:12 10° NNW
Meteor 1-11 Rocket 4.1 20:09:52 10° SSE 20:15:27 47° E 20:20:56 10° NNE
EXPRESS MD2 4.1 20:15:21 10° W 20:17:35 35° NNW 20:20:58 10° NE
ATLAS 3B R/B 4.4 20:16:44 10° N 20:20:47 16° NE 20:24:45 10° ENE
NOSS 2-3 (D) 3.8 20:22:20 10° SSW 20:26:47 54° ESE 20:31:46 10° NE
Resurs 1-3 3.6 20:22:59 10° S 20:27:21 83° WSW 20:31:46 10° NNW
USA 267 3.9 20:21:11 10° SSE 20:27:32 53° SW 20:33:56 10° NW
Cosmos 2322 Rocket 2.1 20:26:47 10° SSW 20:32:28 75° ESE 20:38:10 10° NNE
Delta 2 Rocket 4.0 20:28:45 10° SW 20:32:32 37° SSE 20:34:49 22° ESE
Cosmos 2263 Rocket 3.0 20:29:34 10° N 20:34:42 33° ENE 20:37:35 21° ESE
Cosmos 1939 Rocket 3.0 20:32:05 18° SSE 20:34:52 53° ENE 20:38:44 10° N
Cosmos 44 Rocket 3.4 20:32:37 10° NNW 20:37:22 74° WSW 20:41:13 16° SSE
Okean 1 4.4 20:34:48 10° NNW 20:38:37 45° W 20:42:25 10° SSW
Cosmos 1536 2.9 20:36:50 10° S 20:40:48 54° E 20:44:46 10° NNE
SL-16 R/B 2.2 20:37:34 10° SSW 20:43:14 88° WNW 20:48:56 10° NNE
YAOGAN 6 2.9 20:43:12 32° SE 20:44:21 45° ENE 20:47:44 10° N
Lacrosse 5 rocket 1.2 20:41:42 10° NW 20:45:24 71° SW 20:47:15 29° SSE
Meteor 1-19 Rocket 4.3 20:43:52 10° N 20:49:46 88° W 20:55:20 11° S
Cosmos 2322 4.3 20:50:29 24° SE 20:52:41 33° ESE 20:57:41 10° NE
ATLAS 2AS CENTAUR R/B 2.9 20:45:18 10° SSW 20:52:45 69° ESE 21:00:46 10° NE
Cosmos 1850 Rocket 4.1 20:48:09 10° N 20:53:28 62° ENE 20:56:04 29° SE
Okean 1 Rocket 3.1 20:52:35 26° SSE 20:54:46 54° E 20:59:01 10° NNE
Cosmos 1331 Rocket 4.5 20:54:54 30° SE 20:56:22 36° E 21:01:07 10° NE
Tiangong 1 2.5 20:54:34 10° NW 20:56:54 24° N 20:57:21 23° NNE
Helios 1B rocket 2.3 20:53:16 10° NNE 20:57:20 64° E 20:59:43 24° S
Resurs 01 Rocket 3.3 20:54:45 10° SSW 20:58:45 32° W 21:02:45 10° NNW
Cosmos 1300 Rocket 3.5 20:55:09 10° S 20:59:27 84° W 21:03:47 10° N
COSMOS 2428 4.5 21:04:15 15° ENE 21:04:15 15° ENE 21:05:46 10° NE
NOSS 2-3 (E) 4.3 20:59:15 10° SW 21:03:49 63° NW 21:09:02 10° NNE
Okean 1-7 Rocket 4.3 20:59:51 10° NNE 21:03:57 34° ENE 21:04:02 34° E
BREEZE-M DEB (TANK) 4.0 21:02:44 10° W 21:05:41 42° NNW 21:13:32 10° NE
S3M 4.4 20:59:43 10° NNW 21:05:55 65° W 21:12:10 10° S
Cosmos 2360 Rocket 2.2 21:00:58 10° S 21:06:27 55° ESE 21:11:57 10° NNE
Cosmos 1607 4.3 21:02:05 10° NNW 21:08:23 51° NE 21:10:47 35° ESE
Cosmos 1025 Rocket 3.5 21:05:57 10° N 21:09:50 40° ENE 21:09:50 40° ENE
Cosmos 2266 Rocket 3.9 21:05:03 10° S 21:11:05 84° W 21:17:09 10° N
Meteor 1-5 Rocket 4.0 21:06:43 10° S 21:12:05 88° ESE 21:17:24 10° N
Cosmos 220 Rocket 4.4 21:08:18 10° N 21:12:27 45° ENE 21:12:34 45° ENE
SeaSat 1 4.0 21:09:46 10° N 21:14:16 36° WNW 21:18:43 10° WSW
SPOT 5 3.9 21:14:37 28° ENE 21:14:37 28° ENE 21:18:33 10° NNE
Cosmos 2315 Rocket 4.1 21:08:32 10° N 21:14:40 56° E 21:16:43 39° SE
Nadezhda 2 Rocket 4.4 21:15:45 30° SSE 21:18:46 65° E 21:24:55 10° NNE
CZ-4B DEB 4.0 21:20:10 32° N 21:20:10 32° N 21:21:53 10° N
Lacrosse 5 2.0 21:15:08 10° SW 21:20:12 72° NW 21:25:17 10° NE
Meteor 2-4 Rocket 4.1 21:18:58 10° NNW 21:24:27 62° W 21:28:02 23° SSW
NOAA 11 4.1 21:23:01 46° SSE 21:24:42 78° ENE 21:30:13 10° N
USA 245 4.4 21:25:08 42° ENE 21:25:08 42° ENE 21:29:29 10° N
DELTA 2 R/B (1) 4.0 21:23:12 10° WNW 21:28:34 48° SSW 21:29:30 44° S
Okean 2 3.8 21:29:21 10° N 21:32:35 51° NNE 21:32:35 51° NNE
Meteor 1-29 3.9 21:31:32 10° N 21:34:46 45° WNW 21:34:46 45° WNW
SAR-Lupe-4 4.3 21:36:23 50° NNW 21:36:23 50° NNW 21:39:06 10° NNW
Helios 1A 4.0 21:34:59 35° SW 21:36:07 43° W 21:40:11 10° NNW
Atlas Centaur 2 2.9 21:32:09 10° W 21:39:41 48° SSW 21:40:38 45° S
ERS-1 Rocket 3.0 21:46:24 64° SSW 21:46:59 71° WSW 21:52:01 10° NNW
Cosmos 1932 4.3 21:41:51 10° NNW 21:48:21 87° ENE 21:49:21 66° SE
MetOp-A 4.1 21:47:50 68° SSW 21:48:29 80° WSW 21:53:52 10° NNW
H-2A R/B 2.4 21:51:08 50° NE 21:51:08 50° NE 21:55:17 10° N
USA 238 DEB 4.0 21:46:00 10° NNW 21:52:55 52° NE 21:53:57 48° E
USA 238 4.1 21:46:07 10° NNW 21:53:01 51° NE 21:54:03 48° E
SL-08 RB Rocket 4.3 22:01:44 52° NNW 22:01:44 52° NNW 22:05:12 10° NNW
Terra 3.5 22:07:59 24° NNE 22:07:59 24° NNE 22:10:14 10° N
ARGOS 3.3 22:08:49 64° W 22:08:49 64° W 22:14:05 10° NNW
Meteor 1-12 Rocket 4.4 22:10:23 67° NNE 22:10:23 67° NNE 22:15:14 10° N
ATLAS 3B R/B 2.5 22:05:54 10° NNW 22:12:35 78° NE 22:12:35 78° NE
Cosmos 1241 Rocket 4.4 22:13:46 89° SW 22:13:48 90° WNW 22:20:21 10° NNE
Cosmos 2278 Rocket 4.1 22:14:04 10° N 22:17:05 19° NE 22:17:05 19° NE
Cosmos 2263 Rocket 3.5 22:13:36 10° NW 22:18:29 30° WSW 22:19:18 29° WSW
Cosmos 1844 Rocket 3.4 22:21:07 10° NNW 22:25:19 46° NNE 22:25:19 46° NNE
Nadezhda 1 Rocket 4.3 22:27:43 10° N 22:32:52 60° NNE 22:32:52 60° NNE
Cosmos 2219 Rocket 3.7 22:39:32 28° NNE 22:39:32 28° NNE 22:42:05 10° NNE
COSMOS 2428 3.6 22:46:11 46° NW 22:46:11 46° NW 22:51:03 10° N
Cosmos 2333 Rocket 3.9 23:02:15 26° NNE 23:02:15 26° NNE 23:04:38 10° NNE
CENTAUR R/B 4.3 22:57:02 10° NNW 23:03:48 30° NE 23:04:37 29° NE
Cosmos 2237 Rocket 4.2 23:24:05 21° NNE 23:24:05 21° NNE 23:25:55 10° NNE
